Dati Storici

Data ora Umidita' aria (%) Temperatura aria (°C) Rad globale (W/m²) Gonioanemometro (°) Tacoanemometro (m/s) Pioggia (mm)
27-06-2020 20:10 82.5 % 25.864 112.132 -0.032 0 0
27-06-2020 20:00 81.1 % 25.615 156.732 -0.005 0 0
27-06-2020 19:50 81 % 25.896 80.973 -0.037 0 0
27-06-2020 19:40 81.7 % 26.082 62.686 0.019 0 0
27-06-2020 19:30 82.2 % 25.992 108.022 0.515 0 0
27-06-2020 19:20 82.3 % 25.996 137.212 1.255 0 0
27-06-2020 19:10 79.5 % 26.261 101.94 0.456 0 0
27-06-2020 19:00 75.3 % 26.301 53.251 1.372 0 0
27-06-2020 18:50 74.5 % 26.692 130.993 2.225 0 0
27-06-2020 18:40 74.6 % 26.775 116.129 1.561 0 0
27-06-2020 18:30 75.1 % 27.304 120.779 1.208 0 0
27-06-2020 18:20 73 % 26.8 95.508 1.34 0 0
27-06-2020 18:10 72.2 % 27.218 138.001 1.213 0 0
27-06-2020 18:00 71.1 % 27.123 85.44 2.053 0 0
27-06-2020 17:50 72 % 27.683 118.468 1.593 0 0
27-06-2020 17:40 71.5 % 27.064 115.844 1.043 0 0
27-06-2020 17:30 70.9 % 27.583 194.65 1.981 0 0
27-06-2020 17:20 70.2 % 28.29 138.197 0.469 0 0
27-06-2020 17:10 72 % 27.946 70.295 2.474 0 0
27-06-2020 17:00 71.1 % 27.922 61.099 0.896 0 0

I dati sono presentati in modo automatico a scopo informativo. In seguito a verifica i dati possono subire modifiche o essere invalidati e non riportati negli archivi definitivi.